Location: Unspecified
(0.0000°N, 0.0000°E)
Time: 14:31:55
(UTC+00:00)

CZ-3B DEB - Pass Details

Date: 17 February 2026
Orbit: 979 x 42142 km, 20.1° (Epoch: 15 November)

Event Time Altitude Azimuth Distance (km) Brightness Sun altitude
Exits shadow 04:20:27 31° 317° (NW) 3,949 ? -27.7°
Maximum altitude 11:50:21 67° 176° (S) 41,160 ? 76.7°
Drops below altitude 10° 16:43:15 10° 85° (E) 5,967 ? 22.2°
Sets 16:45:41 0° 82° (E) 6,285 ? 21.6°
